Location: Fossil View Observatory
(30.3980°N, 99.3522°W)
Time: 12:13:23
(UTC-06:00)

ISS - Visible Passes

Search period start: 18 November 2018 00:00
Search period end: 28 November 2018 00:00
Orbit: 401 x 409 km, 51.6° (Epoch: 18 November)

Date Brightness Start Highest point End Pass type
(mag) Time Alt. Az. Time Alt. Az. Time Alt. Az.
18 Nov -0.4 04:43:30 11° ESE 04:43:30 11° ESE 04:43:37 10° ESE visible
19 Nov -1.0 05:26:56 10° S 05:26:56 10° S 05:27:02 10° S visible
19 Nov -1.3 18:47:02 10° SE 18:47:13 10° SE 18:47:13 10° SE visible
20 Nov -2.1 19:28:49 10° SW 19:30:33 29° SW 19:30:33 29° SW visible
21 Nov -2.9 18:37:04 10° SSW 18:40:01 33° SE 18:41:05 26° E visible
22 Nov -2.3 19:21:21 10° WSW 19:24:13 31° NW 19:24:13 31° NW visible
23 Nov -3.7 18:28:54 10° SW 18:32:07 71° NW 18:34:33 16° NE visible
24 Nov -1.2 19:14:57 10° WNW 19:16:40 14° NW 19:17:28 13° NNW visible
25 Nov -1.9 18:21:37 10° W 18:24:20 24° NW 18:27:05 10° NNE visible
27 Nov -1.1 18:15:42 10° NW 18:16:41 11° NNW 18:17:41 10° NNW visible
